Вернуться в каталог

PEGASUS DEB

АктивенPO
NORAD 39321·DEBRIS·🇺🇸 United States

Запущен May 19, 1994 с Vandenberg Space Force Base

Loading…

Ближайшие Пролёты (ближайшие 24 часа)

TLE

СвежийSource: Space-Track

Эпоха: Sep 14, 2026, 05:19 UTC

1 39321U 94029AFG 26257.22191703  .00000545  00000-0  18359-3 0  9992
2 39321  82.2844  77.7084 0431681 275.9672  79.2468 13.94348026666657

Отслеживайте PEGASUS DEB в реальном времени с AllMySat

Download on the App Store